Location: *
(35.8942°N, 23.3025°E)
Time: 22:55:11
(UTC+00:00)

FENGYUN 3A - Pass Details

Date: 21 September 2021
Orbit: 823 x 836 km, 98.5° (Epoch: 22 October)

Event Time Altitude Azimuth Distance (km) Brightness Sun altitude
Rises 01:49:00 0° 19° (NNE) 3,366 7.4 -29.3°
Reaches altitude 10° 01:51:27 10° 25° (NNE) 2,430 6.7 -28.8°
Maximum altitude 01:56:39 49° 100° (E) 1,055 4.4 -27.9°
Enters shadow 01:59:27 26° 162° (SSE) 1,584 5.0 -27.3°
